Content
SEND FEEDBACK

Daily
Averages
Monthly
Summary
China

WUHAN, CHINA


Home > Asia > China
Elevation: 75 feet     Latitude: 30 37N     Longitude: 114 08E

WEATHER
 
SELECT A DAY
Number of Records: 138,252;   Date Range: 1/29/00 - 8/10/14
 
SHARE

PRINT THIS DATA

[ ← Previous Day ]
WEATHER ALMANAC - FEBRUARY 28, 2013
[ Next Day → ]
[ °C ]   °F
Weather ElementAverageHighLow
Temperature53.4 °F61 °F (5:00 pm)43 °F (2:00 am)
Dewpoint49.2 °F54 °F (5:00 pm)43 °F (2:00 am)
Humidity85.3 %98 % (2:00 am)72 % (12:00 pm)
Barometer29.88 in29.98 in (1:00 am)29.75 in (5:00 pm)
Wind Speed5.5 mph8.9 mph (4:00 pm)
Weather ElementAverage
Visibility1.3 mi
Wind DirectionESE (95.9 °)

Weather ElementTotal
Precipitation---
Heating Degree Days13 (Base 65)
Growing Degree Days2 (Base 50)
Averaged from 30 records on February 28, 2013
WEATHER CONDITIONS BREAKOUT
WIND DIRECTION BREAKOUT
WEATHER BY HOUR - FEBRUARY 28, 2013
[ °C ]   °F
Local TimeTemperatureDewpointHumidityBarometerVisibilityWind DirectionWind SpeedGust SpeedPrecipitationEventsConditions
1:00 AM48.2 °F44.6 °F87 %29.98 in0.4 miEast (100°)6.7 mphFogFog
2:00 AM43.0 °F43.0 °F98 %29.96 in0.0 miCalmFogPartial Fog
2:00 AM48.2 °F44.6 °F87 %29.98 in0.1 miESE (110°)6.7 mphFogFog
3:00 AM48.2 °F46.4 °F93 %29.95 in0.2 miEast (100°)4.5 mphFogFog
4:00 AM48.2 °F46.4 °F93 %29.95 in0.1 miEast (90°)4.5 mphFogFog
5:00 AM50.0 °F49.0 °F95 %29.92 in0.0 miESE (110°)4.5 mphFogPartial Fog
5:00 AM48.2 °F44.6 °F87 %29.92 in0.1 miESE (110°)6.7 mphFogFog
6:00 AM46.4 °F44.6 °F93 %29.92 in0.1 miESE (120°)4.5 mphFogFog
7:00 AM46.4 °F44.6 °F93 %29.92 in0.1 miSSE (150°)4.5 mphFogFog
8:00 AM48.0 °F48.0 °F98 %29.90 in0.0 miSE (140°)4.5 mphFogHeavy Fog
8:00 AM46.4 °F44.6 °F93 %29.92 in0.1 miESE (110°)4.5 mphFogFog
9:00 AM48.2 °F46.4 °F93 %29.92 in0.2 miSE (130°)4.5 mphFogFog
10:00 AM53.6 °F50.0 °F88 %29.92 in0.6 miSE (140°)6.7 mphMist
11:00 AM57.0 °F52.0 °F78 %29.90 in3.0 miSE (140°)4.5 mphMist
11:00 AM55.4 °F50.0 °F82 %29.89 in0.7 miESE (120°)6.7 mphMist
12:00 PM57.2 °F48.2 °F72 %29.89 in0.7 miSE (140°)6.7 mphHaze
1:00 PM59.0 °F50.0 °F72 %29.83 in0.7 miESE (120°)6.7 mphHaze
2:00 PM60.8 °F51.8 °F72 %29.80 in0.9 miESE (120°)4.5 mphHaze
3:00 PM60.8 °F51.8 °F72 %29.77 in0.9 miVariable6.7 mphHaze
4:00 PM59.0 °F50.0 °F72 %29.77 in0.7 miESE (110°)8.9 mphHaze
5:00 PM61.0 °F54.0 °F73 %29.75 in7.0 miNE (40°)4.5 mphOvercast
5:00 PM59.0 °F51.8 °F77 %29.77 in1.1 miENE (60°)8.9 mphMist
6:00 PM57.2 °F51.8 °F82 %29.77 in1.2 miNE (40°)6.7 mphScattered Clouds
7:00 PM57.2 °F51.8 °F82 %29.80 in1.6 miNNE (20°)4.5 mphScattered Clouds
8:00 PM58.0 °F54.0 °F84 %29.83 in7.0 miNNE (20°)6.7 mphClear
8:00 PM57.2 °F51.8 °F82 %29.83 in1.6 miNorth (360°)6.7 mphScattered Clouds
9:00 PM55.4 °F51.8 °F88 %29.89 in1.2 miNorth (10°)6.7 mphRainLight Rain
10:00 PM55.4 °F51.8 °F88 %29.92 in0.7 miNNE (30°)4.5 mphRainLight Rain
11:00 PM55.0 °F54.0 °F97 %29.92 in6.0 miNE (40°)6.7 mphClear
11:00 PM55.4 °F51.8 °F88 %29.95 in0.7 miVariable2.2 mphRainLight Rain
Hourly data recorded from ZHHH, located miles away from Wuhan, China







STORIES FROM OUR PARTNERS